Date String (YYYY-MM-DD hh:mm:ss) UTC,Instrument flags,Ambient pressure (hPa),Sample flow (lpm),Bypass flow (lpm),Sample temperature (°C),Ambient temperature (°C),ASC tube jacket temperature (°C),LED temperature (°C),Box temperature (°C),Sample RH (%),Span deviation,Mass concentration (μg/m³),Mass concentration (μg/m³),Mass concentration (μg/m³)
DateTimeUTC,F1_M11,P_M11,Q1_M11,Q2_M11,T1_M11,T2_M11,T3_M11,T4_M11,T5_M11,U1_M11,ZSPAN_M11,X2_M11,X0_M11,X1_M11
2021-10-10 05:00:00,,0822.8,5.00,0.00,29.4,28.3,00.0,38.6,31.1,10.3,0000.0,0001.49,0003.53,0001.28
2021-10-10 05:01:00,,0822.8,5.00,0.00,29.4,28.3,00.0,38.6,31.0,10.3,0000.0,0001.50,0003.55,0001.28
2021-10-10 05:02:00,,0822.8,4.99,0.00,29.4,28.3,00.0,38.6,31.0,10.3,0000.0,0001.49,0003.50,0001.28
2021-10-10 05:03:00,,0822.8,5.01,0.00,29.4,28.3,00.0,38.6,31.1,10.4,0000.0,0001.49,0003.48,0001.28
2021-10-10 05:04:00,,0822.7,5.01,0.00,29.4,28.3,00.0,38.6,31.0,10.3,0000.0,0001.51,0003.05,0001.28
2021-10-10 05:05:00,,0822.7,5.00,0.00,29.4,28.3,00.0,38.6,31.0,10.4,0000.0,0001.51,0002.94,0001.29
2021-10-10 05:06:00,,0822.7,4.99,0.00,29.4,28.3,00.0,38.6,31.1,10.4,0000.0,0001.50,0002.86,0001.28
2021-10-10 05:07:00,,0822.7,4.99,0.00,29.3,28.3,00.0,38.6,31.0,10.4,0000.0,0001.51,0002.04,0001.28
2021-10-10 05:08:00,,0822.6,5.00,0.00,29.3,28.3,00.0,38.5,31.0,10.5,0000.0,0001.53,0002.01,0001.29
2021-10-10 05:09:00,,0822.6,5.01,0.00,29.3,28.3,00.0,38.5,31.0,10.5,0000.0,0001.54,0002.02,0001.30
2021-10-10 05:10:00,,0822.6,4.99,0.00,29.3,28.2,00.0,38.5,30.9,10.5,0000.0,0001.58,0002.10,0001.31
2021-10-10 05:11:00,,0822.6,5.00,0.00,29.3,28.2,00.0,38.5,30.8,10.5,0000.0,0001.55,0002.02,0001.31
2021-10-10 05:12:00,,0822.6,5.00,0.00,29.2,28.2,00.0,38.5,30.9,10.5,0000.0,0001.55,0002.05,0001.31
2021-10-10 05:13:00,,0822.6,5.00,0.00,29.2,28.2,00.0,38.5,30.9,10.5,0000.0,0001.55,0002.04,0001.31
2021-10-10 05:14:00,,0822.6,5.01,0.00,29.2,28.2,00.0,38.5,30.9,10.6,0000.0,0001.55,0002.03,0001.32
2021-10-10 05:15:00,,0822.6,5.00,0.00,29.2,28.2,00.0,38.5,30.9,10.6,0000.0,0001.53,0002.14,0001.32
2021-10-10 05:16:00,,0822.7,5.00,0.00,29.2,28.2,00.0,38.4,30.9,10.6,0000.0,0001.54,0002.16,0001.32
2021-10-10 05:17:00,,0822.7,4.98,0.00,29.2,28.2,00.0,38.4,30.9,10.6,0000.0,0001.56,0002.20,0001.33
2021-10-10 05:18:00,,0822.6,5.01,0.00,29.2,28.2,00.0,38.4,30.9,10.5,0000.0,0001.56,0002.20,0001.34
2021-10-10 05:19:00,,0822.6,5.00,0.00,29.2,28.2,00.0,38.4,30.9,10.3,0000.0,0001.54,0002.22,0001.33
2021-10-10 05:20:00,,0822.7,4.99,0.00,29.2,28.2,00.0,38.4,30.9,10.3,0000.0,0001.56,0002.26,0001.32
2021-10-10 05:21:00,,0822.7,4.99,0.00,29.2,28.2,00.0,38.4,30.9,10.3,0000.0,0001.55,0002.26,0001.33
2021-10-10 05:22:00,,0822.7,5.01,0.00,29.2,28.2,00.0,38.4,30.9,10.3,0000.0,0001.55,0002.32,0001.32
2021-10-10 05:23:00,,0822.7,5.00,0.00,29.2,28.1,00.0,38.4,30.8,10.3,0000.0,0001.56,0003.52,0001.33
2021-10-10 05:24:00,,0822.7,4.99,0.00,29.2,28.2,00.0,38.4,30.8,10.3,0000.0,0001.61,0003.73,0001.33
2021-10-10 05:25:00,,0822.7,5.01,0.00,29.2,28.1,00.0,38.4,30.8,10.4,0000.0,0001.63,0003.79,0001.33
2021-10-10 05:26:00,,0822.7,4.99,0.00,29.2,28.1,00.0,38.4,30.8,10.3,0000.0,0001.67,0003.78,0001.34
2021-10-10 05:27:00,,0822.7,5.00,0.00,29.2,28.1,00.0,38.4,30.8,10.3,0000.0,0001.68,0003.83,0001.34
2021-10-10 05:28:00,,0822.7,4.99,0.00,29.2,28.1,00.0,38.4,30.8,10.3,0000.0,0001.69,0003.86,0001.33
2021-10-10 05:29:00,,0822.7,5.00,0.00,29.2,28.1,00.0,38.4,30.8,10.3,0000.0,0001.74,0004.02,0001.33
2021-10-10 05:30:00,,0822.6,5.01,0.00,29.2,28.1,00.0,38.4,30.8,10.2,0000.0,0001.76,0003.96,0001.35
2021-10-10 05:31:00,,0822.6,5.00,0.00,29.2,28.1,00.0,38.4,30.8,10.2,0000.0,0001.79,0004.29,0001.36
2021-10-10 05:32:00,,0822.5,5.00,0.00,29.1,28.1,00.0,38.3,30.8,10.1,0000.0,0001.77,0004.24,0001.36
2021-10-10 05:33:00,,0822.6,5.01,0.00,29.1,28.1,00.0,38.3,30.9,10.0,0000.0,0001.79,0005.54,0001.37
2021-10-10 05:34:00,,0822.6,4.99,0.00,29.1,28.0,00.0,38.3,30.8,10.0,0000.0,0001.81,0004.83,0001.38
2021-10-10 05:35:00,,0822.8,5.01,0.00,29.1,28.0,00.0,38.3,30.6,09.9,0000.0,0001.79,0004.31,0001.38
2021-10-10 05:36:00,,0822.8,5.00,0.00,29.0,27.9,00.0,38.3,30.6,09.7,0000.0,0001.79,0004.32,0001.38
2021-10-10 05:37:00,,0822.8,4.99,0.00,29.0,27.9,00.0,38.3,30.6,09.9,0000.0,0001.74,0004.18,0001.37
2021-10-10 05:38:00,,0822.8,5.01,0.00,29.0,27.9,00.0,38.3,30.6,10.0,0000.0,0001.68,0004.01,0001.36
2021-10-10 05:39:00,,0822.8,5.01,0.00,29.0,27.9,00.0,38.3,30.7,10.1,0000.0,0001.71,0004.07,0001.36
2021-10-10 05:40:00,,0822.8,4.99,0.00,29.0,27.9,00.0,38.3,30.7,10.2,0000.0,0001.66,0003.98,0001.36
2021-10-10 05:41:00,,0822.8,4.99,0.00,29.0,27.9,00.0,38.2,30.6,10.3,0000.0,0001.65,0004.04,0001.36
2021-10-10 05:42:00,,0822.9,4.99,0.00,29.0,27.9,00.0,38.2,30.7,10.4,0000.0,0001.63,0003.88,0001.35
2021-10-10 05:43:00,,0822.9,5.00,0.00,29.0,27.9,00.0,38.2,30.7,10.4,0000.0,0001.62,0003.74,0001.34
2021-10-10 05:44:00,,0822.9,5.00,0.00,29.0,27.9,00.0,38.2,30.7,10.5,0000.0,0001.61,0002.83,0001.33
2021-10-10 05:45:00,,0823.0,5.00,0.00,29.0,27.9,00.0,38.2,30.7,10.5,0000.0,0001.57,0002.29,0001.31
2021-10-10 05:46:00,,0823.0,4.98,0.00,29.0,27.9,00.0,38.2,30.7,10.5,0000.0,0001.56,0002.22,0001.31
2021-10-10 05:47:00,,0822.9,5.02,0.00,29.0,27.9,00.0,38.2,30.7,10.5,0000.0,0001.53,0002.12,0001.31
2021-10-10 05:48:00,,0823.0,4.98,0.00,29.0,27.9,00.0,38.2,30.7,10.5,0000.0,0001.56,0002.18,0001.31
2021-10-10 05:49:00,,0822.9,5.00,0.00,29.0,27.9,00.0,38.2,30.7,10.5,0000.0,0001.60,0002.29,0001.32
2021-10-10 05:50:00,,0823.0,5.00,0.00,29.0,27.9,00.0,38.2,30.6,10.5,0000.0,0001.60,0002.31,0001.32
2021-10-10 05:51:00,,0822.9,5.00,0.00,29.0,27.9,00.0,38.2,30.7,10.5,0000.0,0001.59,0002.27,0001.31
2021-10-10 05:52:00,,0823.0,5.00,0.00,29.0,27.9,00.0,38.2,30.6,10.5,0000.0,0001.62,0002.25,0001.31
2021-10-10 05:53:00,,0823.0,5.01,0.00,29.0,27.8,00.0,38.2,30.6,10.6,0000.0,0001.63,0002.27,0001.30
2021-10-10 05:54:00,,0822.9,5.01,0.00,29.0,27.8,00.0,38.2,30.6,10.5,0000.0,0001.62,0002.24,0001.31
2021-10-10 05:55:00,,0823.0,4.99,0.00,29.0,27.8,00.0,38.2,30.6,10.6,0000.0,0001.66,0002.33,0001.31
2021-10-10 05:56:00,,0822.9,5.00,0.00,29.0,27.8,00.0,38.2,30.6,10.6,0000.0,0001.68,0002.38,0001.32
2021-10-10 05:57:00,,0822.9,4.99,0.00,29.0,27.8,00.0,38.2,30.6,10.5,0000.0,0001.67,0002.49,0001.32
2021-10-10 05:58:00,,0822.8,5.01,0.00,28.9,27.9,00.0,38.2,30.6,10.5,0000.0,0001.69,0002.57,0001.33
2021-10-10 05:59:00,,0822.8,4.99,0.00,28.9,27.9,00.0,38.2,30.6,10.5,0000.0,0001.73,0002.65,0001.34
